2021-022G (47938 NORAD) Tracking and Keplerian Element Data

This shows tracking and keplerian element data for the satellite.

Feedback or suggestion? Click here.




ElementValue
Catalog47938
Name2021-022G
Epoch Orbit442
Epoch Day110.77104405
Epoch Year2021
RAAN14.0724
Inclination97.5604
Eccentricity0.0021863
Argument of Perigee144.728
Mean Anonmoly294.8028
Mean Motion15.0562249
Decay Rate4.01E-06
L11 47938U 21022G 21110.77104405 .00000401 00000-0 31929-4 0 9994
L22 47938 97.5604 14.0724 0021863 144.7280 294.8028 15.05622490 4425



Live tracking and technical data element details for 2021-022G (NORAD 47938). 2021-022G can be tracked NOW for your location showing map with azimuth and elevation plus other details from your city location.







IsCatalogInMostPopularTable: catalog: 47938, numindb: 107
Update: records affected: 1



GetName: 47938 2021-022G

Hit Count: updated at: Sun, 11 Jun 2023 01:03:10 GMT